Wind_Speed
45 44 44 43 42 41 41 40 39 39 38 37 36 35 35 35 35 35 36 36 37 37 38 38 39 40 41 42 43 44 44 45 46 47 47 48 48 48 48 48 48 47 46
44 44 44 43 42 42 41 41 41 40 39 38 38 37 37 37 37 37 37 38 39 40 41 41 42 43 44 44 45 46 47 47 48 49 50 50 50 49 51 51 51 50 49
44 45 44 43 42 42 42 42 42 41 41 40 39 39 38 38 38 38 39 40 41 42 43 44 45 46 46 47 47 48 49 49 50 51 52 53 52 52 52 52 53 53 52
44 44 43 43 42 42 43 43 43 42 42 41 40 40 39 39 40 40 40 41 42 43 44 46 47 47 48 48 49 49 50 51 51 52 52 54 54 55 55 55 55 55 54
43 43 43 42 42 42 42 43 42 42 42 41 40 39 39 40 40 41 42 43 44 45 45 46 47 48 48 49 49 50 51 51 51 52 53 54 55 56 57 58 57 57 57
43 44 43 42 42 42 42 42 42 41 41 40 40 40 40 41 42 43 44 45 45 46 46 47 48 48 48 48 48 49 50 50 51 53 54 55 57 58 60 61 60 60 59
43 44 43 42 42 42 42 42 41 40 40 40 41 41 42 43 44 45 45 45 46 46 47 47 47 47 47 47 47 48 49 50 52 53 55 56 58 60 61 63 63 63 61
43 43 43 43 42 41 41 41 41 41 41 42 42 43 44 44 44 45 45 45 45 46 46 46 46 46 46 46 47 48 49 51 53 54 56 57 58 60 61 62 62 63 62
41 42 42 41 41 41 41 41 42 42 42 43 43 43 43 43 43 43 43 44 44 44 44 44 44 44 44 45 45 46 48 50 52 53 54 56 57 59 59 60 60 60 61
39 39 40 40 41 41 41 42 42 42 42 42 42 42 42 41 42 42 42 42 42 42 42 42 42 42 42 43 43 44 46 48 49 51 51 53 54 53 53 53 54 55 56
38 38 38 38 39 39 40 40 41 41 41 40 40 40 40 40 40 41 40 40 40 40 40 40 40 40 40 40 41 43 44 46 47 47 48 49 48 47 48 47 47 48 47
37 37 37 38 38 38 38 38 38 38 38 38 38 38 38 38 38 38 38 38 38 37 37 37 37 38 38 39 40 41 42 44 44 45 44 43 42 42 42 42 41 40 41
35 36 36 37 37 37 36 36 35 35 35 35 35 36 36 36 36 36 35 35 35 35 35 35 36 37 38 38 39 40 40 41 41 41 40 38 37 37 37 37 36 35 35
33 34 34 34 34 34 33 32 32 32 32 32 32 33 33 33 33 33 33 32 32 33 33 34 35 36 36 37 38 38 38 37 37 37 36 34 33 33 33 32 31 30 30
30 31 31 30 30 30 29 29 28 28 28 29 29 29 29 30 30 30 30 30 31 31 32 33 34 34 34 35 35 35 35 34 34 33 32 31 30 30 29 29 27 26 26
27 27 27 26 26 26 26 26 26 26 26 25 25 25 26 26 27 27 28 28 29 30 31 31 32 32 33 33 33 32 32 31 30 30 29 28 27 27 26 25 25 24 23
23 23 23 23 23 23 23 23 23 23 22 22 22 23 23 24 24 25 25 26 27 28 29 29 29 30 30 30 30 30 29 28 27 26 26 25 25 24 24 24 23 23 23
21 21 21 21 21 21 21 21 20 20 20 20 20 21 21 21 22 22 23 24 25 26 26 27 27 28 28 28 28 27 27 26 25 25 24 24 24 24 24 24 25 24 25
20 20 20 20 20 20 20 20 19 18 18 18 18 18 18 19 20 20 21 22 23 24 25 26 26 26 27 27 26 26 25 25 25 25 25 25 25 25 26 26 26 26 27
20 20 20 20 20 19 19 19 18 17 17 16 16 17 17 18 18 19 21 22 23 24 24 25 25 26 26 26 25 25 25 25 25 26 26 26 27 27 27 28 29 30 31
21 21 20 20 20 19 18 18 18 17 16 16 16 16 17 18 19 20 21 22 23 24 24 25 25 26 26 25 25 26 26 26 27 27 28 28 29 29 30 31 32 33 34
21 21 20 20 19 19 18 17 17 16 16 16 16 17 17 18 19 21 22 23 24 24 25 26 26 26 26 26 26 27 27 28 29 29 30 31 31 32 33 34 35 36 37
21 21 21 21 20 19 19 18 17 17 17 17 18 18 19 20 21 22 23 24 24 25 26 26 27 27 27 27 28 28 29 30 30 31 32 33 34 34 35 36 37 38 40
22 22 22 22 21 21 20 20 19 19 19 19 19 20 20 21 22 23 24 24 25 26 26 27 28 28 29 29 30 30 31 31 32 33 34 35 35 36 37 38 39 41 42
23 23 23 23 23 23 22 22 21 21 21 21 21 21 22 23 24 25 25 25 26 27 27 28 29 29 30 30 31 31 32 32 33 34 35 36 37 38 39 40 41 43 44
25 25 25 25 25 25 24 24 24 24 24 24 23 24 24 25 25 26 26 27 27 28 28 29 29 30 30 31 31 32 33 33 34 35 36 37 38 40 41 42 44 45 47
Wind_Direction
227 229 231 234 236 238 240 242 245 247 251 254 258 261 264 266 269 272 274 276 277 278 280 282 283 284 285 285 286 286 286 285 285 284 283 283 283 282 281 279 277 276 274
228 229 231 233 236 239 242 244 246 248 251 254 258 260 263 266 268 271 273 276 278 279 281 282 283 284 285 285 286 286 286 286 286 285 284 284 283 283 281 280 279 277 275
229 230 231 233 236 239 243 246 248 250 253 255 258 261 263 266 268 270 272 274 276 278 280 282 283 284 285 286 286 287 287 287 286 286 286 285 285 283 282 282 280 279 277
231 232 232 234 236 239 243 246 249 252 254 257 259 261 263 266 268 271 273 275 276 277 279 281 282 283 285 286 286 287 287 287 287 287 287 286 286 285 283 282 281 279 277
233 233 234 235 237 240 243 246 249 252 255 258 260 262 264 267 270 272 274 275 276 277 278 280 281 283 285 286 286 287 287 287 287 287 287 287 287 286 285 284 281 279 276
235 235 235 237 239 241 243 246 249 252 255 258 261 264 266 269 271 273 274 275 276 278 279 281 282 284 285 286 286 287 287 288 288 288 288 288 288 287 286 284 281 278 276
235 236 236 237 239 241 244 246 249 252 254 258 262 265 268 270 271 273 274 275 276 278 280 282 283 284 285 286 286 287 287 288 288 289 289 288 288 287 286 283 280 278 276
235 236 238 239 240 241 244 246 249 252 256 259 262 265 267 269 270 271 273 275 276 279 280 282 283 284 285 286 286 288 288 289 289 290 290 289 288 287 285 283 280 278 276
233 234 236 239 241 243 245 248 250 254 257 260 262 265 266 268 269 271 273 275 277 279 280 281 283 284 285 286 287 289 290 291 292 291 291 290 290 287 285 283 280 279 276
232 233 235 238 241 243 246 249 252 254 257 260 262 264 266 267 269 272 274 276 277 278 280 281 283 284 286 288 289 291 293 294 295 295 295 294 293 290 288 287 283 280 277
232 234 236 238 241 244 247 249 252 255 257 260 262 264 266 268 271 273 274 276 277 278 280 281 282 285 287 290 292 294 296 298 298 298 299 298 296 294 292 290 287 281 278
234 236 238 240 243 246 248 251 254 256 259 261 263 265 267 269 271 273 274 276 277 279 281 282 284 286 289 293 295 297 299 301 302 303 302 301 301 299 297 294 292 286 281
237 238 240 243 245 248 251 253 255 257 260 262 264 266 268 269 271 273 275 277 278 279 282 284 285 288 291 294 297 299 301 303 304 306 305 305 306 304 303 301 297 293 286
238 240 242 245 247 249 251 254 256 258 260 262 264 266 268 270 272 273 275 277 279 281 284 286 288 290 293 295 298 301 303 304 306 307 306 307 308 308 307 305 302 298 291
239 241 243 245 247 249 251 253 255 257 260 263 265 267 269 271 273 274 276 278 281 284 286 288 290 292 294 297 299 302 303 305 306 307 307 308 309 310 309 308 307 304 299
237 240 242 243 244 246 249 251 254 256 260 263 265 267 269 272 274 276 278 280 283 286 288 290 291 293 295 298 300 302 304 305 306 308 309 310 311 312 313 313 311 307 305
236 238 239 240 241 243 246 248 251 255 259 263 265 268 271 274 276 279 281 284 286 289 290 292 293 295 297 299 301 302 304 306 307 309 310 312 312 312 314 314 313 310 308
234 235 237 238 239 241 243 246 249 254 258 263 266 269 273 276 279 281 284 286 289 291 293 294 296 298 299 300 301 302 303 304 307 308 309 311 313 313 312 312 311 308 306
232 234 235 236 237 240 242 245 249 253 258 262 266 270 274 278 280 283 286 289 291 293 295 296 298 299 301 301 301 302 303 305 307 308 309 310 311 311 310 309 309 307 305
232 232 233 235 237 239 242 245 249 253 257 263 268 272 276 279 282 284 288 291 294 295 297 298 299 300 301 302 302 302 304 306 308 308 308 308 309 308 308 307 307 306 305
230 231 233 234 236 239 243 246 249 253 258 264 269 273 276 279 282 286 289 292 295 296 297 298 299 300 301 302 303 303 304 306 307 308 308 308 309 308 307 307 306 306 305
231 231 233 235 237 240 244 247 250 253 259 265 270 274 278 281 283 286 289 292 294 296 297 298 299 301 302 303 304 304 304 305 306 308 308 308 308 308 308 307 307 307 306
233 234 236 237 239 241 245 248 252 256 261 266 270 275 279 282 284 287 290 292 294 295 297 298 300 302 303 304 304 304 304 305 306 307 308 308 308 308 308 308 307 307 307
237 238 239 240 242 244 247 251 255 259 263 268 272 275 279 282 285 287 290 292 294 295 297 299 300 302 303 304 304 305 305 306 307 307 308 308 308 309 308 308 308 308 308
241 243 244 245 246 248 251 253 256 260 264 268 272 276 279 281 284 287 289 291 293 295 297 298 300 301 302 303 304 305 306 306 307 308 309 309 309 310 310 309 309 310 310
246 247 248 249 250 252 254 256 258 261 264 268 272 276 279 281 284 286 288 290 293 294 296 298 299 301 302 303 304 304 305 305 306 308 309 310 310 310 311 311 311 311 312
Height
5789 5794 5799 5803 5806 5810 5813 5815 5818 5820 5822 5823 5825 5826 5827 5827 5827 5827 5827 5826 5826 5824 5823 5822 5821 5819 5817 5815 5812 5810 5808 5806 5803 5800 5798 5797 5795 5793 5791 5789 5787 5785 5783
5782 5787 5792 5796 5799 5802 5805 5807 5810 5812 5815 5816 5818 5819 5820 5820 5820 5820 5819 5818 5817 5815 5814 5813 5811 5809 5807 5805 5803 5800 5797 5795 5792 5789 5786 5785 5785 5782 5779 5777 5775 5774 5772
5775 5780 5785 5789 5792 5795 5797 5800 5802 5804 5807 5809 5810 5811 5812 5812 5812 5812 5811 5810 5809 5807 5805 5803 5801 5799 5797 5795 5792 5789 5786 5784 5781 5777 5774 5772 5772 5770 5767 5765 5763 5761 5760
5768 5773 5777 5781 5784 5787 5789 5792 5794 5796 5799 5800 5802 5803 5803 5804 5803 5803 5802 5801 5800 5798 5796 5794 5791 5789 5786 5784 5781 5778 5775 5772 5769 5766 5762 5759 5757 5755 5754 5752 5750 5747 5746
5760 5765 5769 5773 5776 5779 5782 5784 5787 5788 5790 5792 5793 5794 5794 5795 5794 5793 5793 5791 5790 5788 5786 5783 5781 5778 5776 5773 5770 5767 5763 5760 5757 5754 5750 5746 5743 5740 5737 5736 5736 5733 5732
5752 5756 5760 5764 5767 5770 5773 5776 5778 5780 5781 5783 5784 5785 5785 5785 5785 5784 5782 5781 5779 5777 5775 5773 5770 5768 5765 5762 5759 5755 5752 5748 5745 5741 5737 5733 5729 5726 5722 5719 5718 5716 5715
5743 5747 5752 5755 5759 5762 5765 5767 5769 5771 5772 5774 5774 5775 5775 5775 5774 5773 5772 5770 5769 5766 5764 5762 5760 5757 5754 5751 5748 5744 5741 5737 5733 5728 5724 5720 5716 5711 5706 5702 5700 5698 5698
5735 5739 5743 5746 5750 5753 5756 5758 5760 5762 5763 5764 5765 5766 5766 5765 5764 5763 5762 5760 5758 5756 5754 5751 5749 5746 5743 5740 5737 5733 5730 5725 5721 5716 5710 5705 5701 5695 5689 5685 5681 5679 5678
5726 5730 5734 5737 5741 5744 5747 5749 5751 5753 5754 5755 5755 5756 5755 5755 5754 5753 5751 5750 5748 5746 5744 5741 5739 5736 5733 5730 5726 5723 5718 5713 5708 5702 5696 5691 5685 5679 5673 5668 5664 5660 5658
5717 5721 5725 5728 5732 5735 5737 5740 5742 5743 5744 5745 5745 5745 5745 5745 5744 5743 5741 5740 5738 5736 5734 5731 5729 5726 5723 5719 5715 5711 5706 5701 5695 5689 5682 5676 5669 5663 5658 5652 5648 5644 5641
5709 5713 5716 5720 5723 5726 5728 5730 5732 5733 5734 5735 5735 5735 5735 5735 5734 5733 5731 5730 5728 5726 5724 5721 5719 5716 5712 5709 5705 5700 5695 5689 5682 5676 5669 5662 5655 5649 5644 5639 5634 5630 5626
5701 5705 5708 5711 5714 5717 5719 5721 5722 5724 5725 5725 5725 5726 5725 5725 5724 5723 5722 5720 5718 5716 5714 5712 5709 5706 5702 5699 5694 5689 5684 5677 5671 5664 5657 5650 5644 5638 5633 5628 5623 5619 5616
5694 5697 5700 5703 5705 5708 5710 5712 5713 5714 5715 5716 5716 5716 5716 5715 5715 5714 5712 5711 5709 5707 5705 5702 5699 5696 5693 5689 5684 5679 5673 5667 5660 5654 5647 5641 5635 5629 5624 5619 5614 5610 5607
5686 5689 5692 5695 5697 5699 5701 5703 5704 5706 5706 5707 5707 5707 5707 5706 5705 5704 5703 5701 5700 5698 5695 5693 5690 5687 5683 5679 5674 5669 5663 5657 5651 5645 5639 5633 5627 5622 5617 5612 5607 5603 5600
5679 5682 5684 5687 5689 5691 5693 5695 5696 5697 5698 5699 5699 5698 5698 5697 5696 5695 5694 5692 5691 5689 5686 5684 5681 5677 5674 5669 5665 5660 5654 5649 5643 5637 5632 5626 5621 5616 5611 5606 5602 5598 5595
5672 5674 5677 5679 5682 5684 5686 5687 5689 5690 5690 5691 5691 5690 5690 5689 5688 5687 5685 5684 5682 5680 5678 5675 5672 5668 5664 5660 5656 5651 5646 5641 5636 5631 5626 5620 5616 5611 5606 5602 5598 5594 5591
5665 5668 5670 5673 5675 5677 5679 5680 5682 5682 5683 5683 5683 5683 5682 5681 5680 5679 5677 5676 5674 5672 5669 5666 5663 5660 5656 5652 5648 5643 5639 5634 5629 5625 5620 5615 5611 5606 5602 5598 5594 5590 5587
5660 5662 5664 5667 5669 5671 5672 5674 5675 5675 5676 5676 5676 5676 5675 5674 5673 5672 5670 5668 5666 5664 5662 5659 5655 5652 5648 5644 5640 5636 5632 5628 5623 5619 5615 5610 5606 5602 5597 5594 5590 5586 5583
5654 5657 5659 5661 5663 5665 5666 5667 5668 5669 5669 5669 5669 5669 5668 5667 5666 5665 5663 5661 5659 5657 5654 5651 5648 5645 5641 5637 5633 5630 5626 5622 5618 5614 5609 5605 5601 5597 5593 5589 5585 5582 5578
5649 5651 5653 5655 5657 5659 5660 5661 5662 5663 5663 5663 5663 5662 5662 5661 5660 5658 5657 5655 5653 5650 5647 5644 5641 5638 5635 5631 5627 5623 5620 5616 5612 5608 5604 5600 5595 5591 5587 5583 5579 5575 5571
5644 5646 5648 5650 5652 5653 5655 5656 5656 5657 5657 5657 5657 5656 5656 5655 5653 5652 5650 5648 5646 5643 5641 5638 5635 5632 5628 5624 5621 5617 5613 5609 5605 5601 5597 5593 5589 5585 5580 5576 5572 5568 5563
5639 5641 5643 5645 5646 5648 5649 5650 5650 5651 5651 5651 5651 5650 5649 5649 5647 5646 5644 5642 5639 5637 5634 5631 5628 5625 5621 5618 5614 5610 5606 5603 5599 5595 5590 5586 5582 5577 5573 5568 5564 5559 5554
5634 5636 5637 5639 5641 5642 5643 5644 5645 5645 5645 5645 5645 5644 5643 5642 5641 5639 5637 5635 5633 5630 5627 5624 5621 5618 5614 5610 5607 5603 5599 5595 5591 5587 5583 5578 5574 5569 5564 5559 5554 5549 5544
5628 5630 5632 5633 5635 5636 5637 5638 5638 5639 5639 5639 5638 5638 5637 5635 5634 5632 5630 5628 5626 5623 5620 5617 5614 5610 5607 5603 5599 5595 5592 5588 5583 5579 5575 5570 5565 5560 5555 5550 5544 5539 5533
5623 5624 5626 5627 5628 5630 5631 5631 5632 5632 5632 5632 5632 5631 5630 5628 5627 5625 5623 5621 5618 5616 5613 5610 5606 5603 5599 5596 5592 5588 5584 5580 5575 5571 5566 5561 5556 5551 5545 5540 5534 5528 5521
5616 5618 5619 5620 5622 5623 5624 5624 5625 5625 5625 5625 5624 5623 5622 5621 5619 5617 5615 5613 5611 5608 5605 5602 5599 5595 5592 5588 5584 5580 5576 5571 5567 5562 5557 5552 5546 5541 5535 5529 5523 5516 5509